GW5434 Weather Reports


time (UTC)temp
C
wind
direction
speed
KPH
gust
KPH
rain 1hr
cm
rain 24hr
cm
rain mn
cm
humidity
%
barometer
mb
20260906174515 34 248 1.6 11.3 0.00 0.00 0.00 55 1013.0
20260906173023 34 179 3.2 8.0 0.00 0.00 0.00 57 1013.2
20260906171527 33 290 4.8 11.3 0.00 0.00 0.00 56 1013.3
20260906170007 33 18 3.2 11.3 0.00 0.00 0.00 60 1013.5
20260906164520 32 307 1.6 8.0 0.00 0.00 0.00 62 1013.7
20260906163024 32 285 3.2 6.4 0.00 0.00 0.00 64 1013.9
20260906161526 32 347 6.4 12.9 0.00 0.00 0.00 67 1013.9
20260906160028 31 296 3.2 9.7 0.00 0.00 0.00 70 1014.0
20260906154507 31 283 4.8 9.7 0.00 0.00 0.00 72 1014.1
20260906153014 30 356 4.8 8.0 0.00 0.00 0.00 73 1014.3
20260906151520 30 274 4.8 9.7 0.00 0.00 0.00 74 1014.4
20260906150029 30 6 1.6 6.4 0.00 0.00 0.00 77 1014.2
20260906144529 29 25 1.6 8.0 0.00 0.00 0.00 78 1014.3
20260906143009 28 293 1.6 6.4 0.00 0.00 0.00 79 1014.1
20260906141515 28 336 1.6 6.4 0.00 0.00 0.00 82 1014.3
20260906140021 27 249 3.2 4.8 0.00 0.00 0.00 83 1014.4
20260906134527 27 262 1.6 6.4 0.00 0.00 0.00 85 1014.5
20260906133041 26 281 0.0 3.2 0.00 0.00 0.00 87 1014.5
20260906131513 26 328 0.0 0.0 0.00 0.00 0.00 88 1014.5
20260906130017 25 259 0.0 1.6 0.00 0.00 0.00 93 1014.2
20260906124524 23 125 0.0 0.0 0.00 0.00 0.00 95 1014.1
20260906123037 22 125 0.0 0.0 0.00 0.00 0.00 95 1014.1
20260906121542 22 125 0.0 0.0 0.00 0.00 0.00 95 1014.2
20260906120012 22 125 0.0 0.0 0.00 0.00 0.00 95 1014.0
20260906114526 22 125 0.0 0.0 0.00 0.00 0.00 95 1013.9
20260906113024 22 125 0.0 0.0 0.00 0.00 0.00 94 1013.7
20260906111529 22 125 0.0 0.0 0.00 0.00 0.00 94 1013.5
20260906110030 22 125 0.0 0.0 0.00 0.00 0.00 95 1013.4
20260906104517 22 125 0.0 0.0 0.00 0.00 0.00 94 1013.2
20260906103021 22 125 0.0 0.0 0.00 0.00 0.00 94 1013.1
20260906101527 22 125 0.0 0.0 0.00 0.00 0.00 95 1013.1
20260906100038 22 125 0.0 0.0 0.00 0.00 0.00 94 1013.0
20260906094532 22 125 0.0 0.0 0.00 0.00 0.00 94 1013.0
20260906093033 22 125 0.0 0.0 0.00 0.00 0.00 94 1012.9
20260906091525 22 125 0.0 0.0 0.00 0.00 0.00 94 1012.7
20260906090030 22 125 0.0 0.0 0.00 0.00 0.00 94 1012.8
20260906084529 22 126 0.0 0.0 0.00 0.00 0.00 94 1012.7
20260906083030 22 127 0.0 0.0 0.00 0.00 0.00 94 1012.6
20260906081539 22 127 0.0 0.0 0.00 0.00 0.00 94 1012.5
20260906071533 22 117 0.0 0.0 0.00 0.00 0.00 93 1012.2
20260906070035 22 117 0.0 0.0 0.00 0.00 0.00 93 1012.3
20260906064526 23 117 0.0 0.0 0.00 0.00 0.00 93 1012.4
20260906063031 23 117 0.0 0.0 0.00 0.00 0.00 93 1012.4
20260906061534 23 117 0.0 0.0 0.00 0.00 0.00 93 1012.3
20260906060031 23 117 0.0 0.0 0.00 0.00 0.00 93 1012.5
20260906054526 23 117 0.0 0.0 0.00 0.00 0.00 92 1012.5
20260906053036 23 117 0.0 0.0 0.00 0.00 0.00 92 1012.6
20260906051531 23 117 0.0 0.0 0.00 0.00 0.00 92 1012.5
20260906050042 23 117 0.0 0.0 0.00 0.00 0.00 92 1012.5
20260906044515 23 117 0.0 0.0 0.00 0.00 0.00 92 1012.6
20260906043002 23 117 0.0 0.0 0.00 0.00 0.00 91 1012.6
20260906041503 23 113 0.0 0.0 0.00 0.00 0.00 91 1012.6
20260906040010 24 128 0.0 0.0 0.00 0.00 0.00 91 1012.7
20260906034523 24 128 0.0 0.0 0.00 0.00 0.00 91 1012.8
20260906033014 24 113 0.0 0.0 0.00 0.00 0.00 90 1013.0
20260906031502 25 116 0.0 0.0 0.00 0.00 0.00 89 1013.1
20260906030007 25 122 0.0 0.0 0.00 0.00 0.00 90 1013.1
20260906024512 25 122 0.0 0.0 0.00 0.00 0.00 89 1013.1
20260906023018 25 119 0.0 0.0 0.00 0.00 0.00 88 1012.9
20260906021519 25 119 0.0 0.0 0.00 0.00 0.00 87 1012.8
20260906020006 26 119 0.0 0.0 0.00 0.00 0.00 86 1012.6
20260906014508 26 122 0.0 0.0 0.00 0.00 0.00 85 1012.4
20260906013014 26 111 0.0 0.0 0.00 0.00 0.00 84 1012.3
20260906011523 27 225 0.0 0.0 0.00 0.00 0.00 81 1012.2
20260906010020 27 152 0.0 1.6 0.00 0.00 0.00 80 1012.2
20260906004505 28 171 1.6 3.2 0.00 0.00 0.00 78 1011.9
20260906003010 28 209 0.0 8.0 0.00 0.00 0.00 77 1011.9
20260906001518 29 120 3.2 11.3 0.00 0.00 0.00 76 1011.9
20260906000024 30 175 6.4 16.1 0.00 0.00 0.00 74 1011.9
20260905234520 31 123 0.0 1.6 0.00 0.00 0.00 74 1011.8
20260905233012 32 140 0.0 1.6 0.00 0.00 0.00 65 1011.7
20260905231515 33 139 0.0 1.6 0.00 0.00 0.00 63 1011.9
20260905230019 33 86 0.0 4.8 0.00 0.00 0.00 62 1011.7
20260905224526 34 327 3.2 6.4 0.00 0.00 0.00 59 1011.7
20260905223031 33 166 3.2 9.7 0.00 0.00 0.00 61 1011.6
20260905221513 33 49 3.2 8.0 0.00 0.00 0.00 59 1011.6
20260905220014 33 27 1.6 11.3 0.00 0.00 0.00 60 1011.5
20260905214524 33 351 1.6 6.4 0.00 0.03 0.00 62 1011.7
20260905213030 33 25 1.6 9.7 0.00 0.03 0.00 60 1012.0
20260905211528 33 91 1.6 9.7 0.00 0.03 0.00 62 1012.1
20260905210013 33 56 4.8 9.7 0.00 0.03 0.00 62 1012.1
20260905204519 33 41 4.8 12.9 0.00 0.03 0.00 63 1012.5
20260905203021 33 155 3.2 9.7 0.00 0.03 0.00 65 1012.7
20260905201530 33 110 6.4 19.3 0.00 0.03 0.00 64 1013.0
20260905200039 33 122 1.6 6.4 0.00 0.03 0.00 66 1012.8
20260905194515 33 104 3.2 8.0 0.00 0.03 0.00 64 1012.9
20260905193022 32 30 1.6 16.1 0.00 0.03 0.00 66 1013.0
20260905191532 32 125 3.2 8.0 0.00 0.03 0.00 66 1013.1
20260905190021 32 89 4.8 11.3 0.00 0.03 0.00 64 1013.4
20260905184511 33 118 1.6 12.9 0.00 0.03 0.00 62 1013.9
20260905183016 32 53 3.2 9.7 0.00 0.03 0.00 67 1014.1
20260905181525 32 333 1.6 4.8 0.00 0.03 0.00 69 1014.1
20260905180026 32 151 0.0 6.4 0.00 0.03 0.00 68 1014.3